FLOCK 4S-34 (47477 NORAD) Tracking and Keplerian Element Data

This shows tracking and keplerian element data for the satellite.

Feedback or suggestion? Click here.




ElementValue
Catalog47477
NameFLOCK 4S-34
Epoch Orbit1198
Epoch Day101.91389786
Epoch Year2021
RAAN164.2403
Inclination97.5004
Eccentricity0.0007378
Argument of Perigee355.0185
Mean Anonmoly5.097
Mean Motion15.1184495
Decay Rate2.232E-05
L11 47477U 21006BS 21101.91389786 .00002232 00000-0 13426-3 0 9992
L22 47477 97.5004 164.2403 0007378 355.0185 5.0970 15.11844950 11986

Live tracking and technical data element details for FLOCK 4S-34 (NORAD 47477). FLOCK 4S-34 can be tracked NOW for your location showing map with azimuth and elevation plus other details from your city location.

Track the satellite on the map from your city or location and see movement details for azimuth, elevation, latitude, longitude, range, height, and movement on the map or in text.







IsCatalogInMostPopularTable: catalog: 47477, numindb: 14
Update: records affected: 1



GetName: 47477 FLOCK 4S-34

Hit Count: updated at: Tue, 13 Apr 2021 04:02:46 GMT